Weather History for Bemidji, MN

Change the Weather History Date:

Saturday, December 1, 2012

  Actual Average Record
Temperature  
Mean Temperature 32 °F -  
Max Temperature 36 °F 24 °F 56 °F (1962)
Min Temperature 29 °F 7 °F -19 °F (1960)
Degree Days  
Heating Degree Days 32    
Moisture  
Dew Point 32 °F    
Average Humidity 94    
Maximum Humidity 99    
Minimum Humidity 89    
Precipitation  
Precipitation 0.00 in - - ()
Sea Level Pressure  
Sea Level Pressure 29.75 in    
Wind  
Wind Speed 10 mph (SSW)    
Max Wind Speed 17 mph    
Max Gust Speed 24 mph    
Visibility 2 miles    
Events      
Averages and records for this station are not official NWS values.
T = Trace of Precipitation, MM = Missing Value Source: NWS Daily Summary

Daily Weather History Graph

Daily Weather History Graph

Search for Another Location

Airport:

Trip Planner

Search our weather history database for the weather conditions in past years. The results will help you decide how hot, cold, wet, or windy it might be!

Date:

Astronomy

Dec. 01, 2012 Rise Set
Actual Time 7:47 AM CST 4:30 PM CST
Civil Twilight 7:12 AM CST 5:05 PM CST
Nautical Twilight 6:33 AM CST 5:44 PM CST
Astronomical Twilight 5:56 AM CST 6:21 PM CST
Moon 7:25 PM CST (12/1) 9:57 AM CST (12/1)
Length of Visible Light 9h 53m
Length of Day
8h 43m
Waning Gibbous, 91% of the Moon is Illuminated
Dec 1
Waning Gibbous
Dec 6
Last Quarter
Dec 13
New
Dec 19
First Quarter
Dec 28
Full

Hourly Weather History & Observations

Time (CST) Temp. Windchill Dew Point Humidity Pressure Visibility Wind Dir Wind Speed Gust Speed Precip Events Conditions
12:15 AM 29.1 °F 18.4 °F 28.6 °F 98% 29.90 in 2.0 mi SE 13.8 mph - N/A   Overcast
12:35 AM 29.3 °F 19.6 °F 28.9 °F 99% 29.89 in 2.5 mi SE 11.5 mph - N/A   Overcast
12:55 AM 29.5 °F 19.3 °F 28.9 °F 98% 29.87 in 2.5 mi SE 12.7 mph 19.6 mph N/A   Overcast
1:15 AM 29.8 °F 19.8 °F 29.1 °F 97% 29.87 in 3.0 mi SE 12.7 mph - N/A   Overcast
1:35 AM 30.0 °F 18.7 °F 29.1 °F 96% 29.84 in 3.0 mi SE 16.1 mph - N/A   Overcast
1:55 AM 30.2 °F 19.3 °F 29.3 °F 96% 29.83 in 3.0 mi SE 15.0 mph 19.6 mph N/A   Overcast
2:15 AM 30.6 °F 19.8 °F 29.3 °F 95% 29.82 in 3.0 mi SSE 15.0 mph 19.6 mph N/A   Overcast
2:35 AM 30.9 °F 20.7 °F 29.8 °F 96% 29.82 in 3.0 mi SSE 13.8 mph - N/A   Overcast
2:55 AM 31.3 °F 22.7 °F 30.0 °F 95% 29.81 in 3.0 mi SSE 10.4 mph - N/A   Overcast
3:15 AM 31.8 °F 22.8 °F 30.2 °F 94% 29.80 in 3.0 mi SSE 11.5 mph - N/A   Overcast
3:35 AM 32.0 °F 21.2 °F 30.6 °F 94% 29.79 in 3.0 mi SE 16.1 mph - N/A   Overcast
4:15 AM 32.0 °F 21.6 °F 30.9 °F 96% 29.75 in 3.0 mi SSE 15.0 mph 20.7 mph N/A   Overcast
4:35 AM 32.0 °F 20.8 °F 31.1 °F 96% 29.73 in 2.5 mi SE 17.3 mph 20.7 mph N/A   Overcast
4:55 AM 32.2 °F 22.3 °F 31.5 °F 97% 29.73 in 2.5 mi SSE 13.8 mph 24.2 mph N/A   Overcast
5:15 AM 32.4 °F 21.7 °F 31.6 °F 97% 29.71 in 2.5 mi SSE 16.1 mph - N/A   Overcast
5:35 AM 32.5 °F 22.7 °F 31.6 °F 96% 29.72 in 3.0 mi SSE 13.8 mph 20.7 mph N/A   Overcast
5:55 AM 32.5 °F 23.2 °F 31.6 °F 96% 29.72 in 3.0 mi SSE 12.7 mph 18.4 mph N/A   Overcast
6:15 AM 32.9 °F 24.1 °F 31.8 °F 96% 29.73 in 3.0 mi South 11.5 mph - N/A   Overcast
6:35 AM 33.1 °F 26.1 °F 31.8 °F 95% 29.73 in 3.0 mi SSE 8.1 mph - N/A   Overcast
6:55 AM 33.4 °F 25.9 °F 32.0 °F 94% 29.72 in 4.0 mi SSE 9.2 mph 18.4 mph N/A   Overcast
7:15 AM 33.3 °F 24.6 °F 32.0 °F 95% 29.72 in 4.0 mi South 11.5 mph 17.3 mph N/A   Overcast
7:35 AM 33.4 °F 25.4 °F 32.0 °F 94% 29.73 in 2.5 mi South 10.4 mph - N/A   Overcast
7:55 AM 33.3 °F 25.7 °F 32.0 °F 95% 29.72 in 2.0 mi SSE 9.2 mph - N/A   Overcast
8:15 AM 33.3 °F 25.7 °F 32.0 °F 95% 29.72 in 1.8 mi SSE 9.2 mph - N/A   Overcast
8:35 AM 33.3 °F 25.7 °F 32.0 °F 95% 29.72 in 1.8 mi SSE 9.2 mph - N/A   Overcast
8:55 AM 33.4 °F 26.6 °F 32.2 °F 95% 29.73 in 1.8 mi South 8.1 mph - N/A   Overcast
9:15 AM 33.4 °F 25.9 °F 32.4 °F 96% 29.72 in 1.5 mi SSE 9.2 mph - N/A   Overcast
9:35 AM 33.4 °F 25.9 °F 32.5 °F 96% 29.72 in 1.2 mi SSE 9.2 mph - N/A   Overcast
9:55 AM 33.6 °F 26.8 °F 32.7 °F 96% 29.71 in 1.2 mi SSE 8.1 mph - N/A   Overcast
10:15 AM 33.8 °F 27.7 °F 32.9 °F 96% 29.71 in 1.0 mi South 6.9 mph - N/A   Overcast
10:35 AM 33.8 °F 28.6 °F 32.9 °F 96% 29.71 in 1.0 mi SSE 5.8 mph - N/A   Overcast
10:55 AM 34.0 °F 28.8 °F 33.1 °F 96% 29.71 in 1.0 mi SSE 5.8 mph - N/A   Overcast
11:15 AM 34.3 °F 28.4 °F 33.3 °F 96% 29.71 in 1.2 mi South 6.9 mph - N/A   Overcast
11:35 AM 34.7 °F 28.8 °F 33.3 °F 94% 29.70 in 1.2 mi SSE 6.9 mph - N/A   Overcast
11:55 AM 34.7 °F 29.6 °F 33.3 °F 94% 29.69 in 1.2 mi South 5.8 mph - N/A   Overcast
12:15 PM 35.1 °F 30.1 °F 33.3 °F 93% 29.69 in 1.5 mi South 5.8 mph - N/A   Overcast
12:35 PM 35.6 °F 32.8 °F 33.4 °F 92% 29.68 in 1.8 mi South 3.5 mph - N/A   Overcast
12:55 PM 35.8 °F 31.9 °F 33.4 °F 91% 29.68 in 1.8 mi SSW 4.6 mph - N/A   Overcast
1:15 PM 35.8 °F - 33.3 °F 91% 29.68 in 1.8 mi Calm Calm - N/A   Overcast
1:35 PM 36.0 °F 33.3 °F 33.3 °F 90% 29.68 in 2.0 mi SW 3.5 mph - N/A   Overcast
1:55 PM 36.0 °F - 33.1 °F 89% 29.68 in 2.0 mi Calm Calm - N/A   Overcast
2:15 PM 36.0 °F - 33.1 °F 89% 29.68 in 2.0 mi Calm Calm - N/A   Overcast
2:35 PM 35.8 °F - 33.1 °F 90% 29.69 in 2.0 mi Calm Calm - N/A   Overcast
2:55 PM 35.8 °F - 33.1 °F 90% 29.69 in 1.8 mi Calm Calm - N/A   Overcast
3:15 PM 36.0 °F - 32.9 °F 89% 29.70 in 2.0 mi Calm Calm - N/A   Overcast
3:35 PM 36.0 °F - 32.9 °F 89% 29.72 in 2.0 mi Calm Calm - N/A   Overcast
3:55 PM 35.2 °F - 32.9 °F 91% 29.72 in 2.0 mi Calm Calm - N/A   Overcast
4:15 PM 34.9 °F - 32.9 °F 92% 29.73 in 2.0 mi Calm Calm - N/A   Overcast
4:35 PM 35.1 °F 31.0 °F 32.9 °F 92% 29.73 in 2.0 mi West 4.6 mph - N/A   Overcast
4:55 PM 35.2 °F 29.5 °F 32.4 °F 89% 29.74 in 3.0 mi West 6.9 mph - N/A   Overcast
5:15 PM 35.1 °F 28.6 °F 32.0 °F 89% 29.74 in 4.0 mi NW 8.1 mph - N/A   Overcast
5:55 PM 33.8 °F 28.6 °F 32.0 °F 93% 29.74 in 4.0 mi WNW 5.8 mph - N/A   Overcast
6:15 PM 33.6 °F 27.5 °F 31.8 °F 93% 29.75 in 4.0 mi WNW 6.9 mph - N/A   Overcast
6:35 PM 33.4 °F 29.1 °F 31.8 °F 94% 29.76 in 4.0 mi WNW 4.6 mph - N/A   Overcast
6:55 PM 33.3 °F 26.4 °F 31.6 °F 94% 29.76 in 3.0 mi WNW 8.1 mph - N/A   Overcast
7:15 PM 32.9 °F 25.9 °F 31.5 °F 94% 29.77 in 3.0 mi WNW 8.1 mph - N/A   Overcast
7:55 PM 32.2 °F 25.8 °F 31.3 °F 96% 29.78 in 3.0 mi NW 6.9 mph - N/A   Overcast
8:15 PM 32.2 °F 27.7 °F 31.1 °F 96% 29.78 in 2.5 mi NW 4.6 mph - N/A   Overcast
8:35 PM 32.0 °F 24.2 °F 31.1 °F 96% 29.79 in 2.5 mi WNW 9.2 mph - N/A   Overcast
8:55 PM 32.0 °F 26.4 °F 31.1 °F 96% 29.80 in 2.5 mi WNW 5.8 mph - N/A   Overcast
9:15 PM 32.0 °F 25.6 °F 31.1 °F 96% 29.80 in 2.5 mi NW 6.9 mph - N/A   Overcast
9:35 PM 32.0 °F 24.8 °F 31.1 °F 96% 29.81 in 3.0 mi WNW 8.1 mph - N/A   Overcast
9:55 PM 32.0 °F 26.4 °F 31.1 °F 96% 29.81 in 2.5 mi WNW 5.8 mph - N/A   Overcast
10:15 PM 32.0 °F 25.6 °F 31.1 °F 96% 29.82 in 2.5 mi WNW 6.9 mph - N/A   Overcast
10:35 PM 32.0 °F 27.5 °F 31.1 °F 96% 29.83 in 2.0 mi West 4.6 mph - N/A   Overcast
10:55 PM 31.8 °F 28.5 °F 31.1 °F 97% 29.83 in 1.8 mi West 3.5 mph - N/A   Overcast
11:15 PM 31.6 °F 27.0 °F 31.1 °F 98% 29.83 in 2.0 mi WNW 4.6 mph - N/A   Overcast
11:35 PM 31.6 °F 27.0 °F 30.9 °F 97% 29.83 in 2.5 mi WNW 4.6 mph - N/A   Overcast
11:55 PM 31.6 °F 27.0 °F 30.9 °F 97% 29.84 in 2.5 mi WNW 4.6 mph - N/A   Overcast